Dewpoint
7 7 6 7 7 5 5 4 7 7 8 6 5 5 8 8 9 9 13 15 16 15
11 12 12 10 10 9 10 10 9 7 8 8 6 5 7 7 9 11 11 13 14 13
9 10 10 10 9 8 7 8 8 9 8 8 8 6 6 6 7 9 10 9 12 13
9 9 9 9 9 9 8 8 8 8 8 7 7 7 7 6 4 5 7 9 11 12
11 9 9 9 8 6 7 8 7 7 7 7 7 7 7 6 5 5 6 8 10 12
10 10 9 9 8 6 5 5 7 6 6 6 6 7 6 7 6 6 7 9 12 13
10 9 7 7 7 6 5 4 4 5 6 6 6 7 7 7 9 11 11 12 13 13
9 8 6 6 6 4 4 4 5 5 6 6 7 7 8 11 12 12 12 11 11 11
6 6 5 5 2 3 5 6 6 5 4 3 4 6 8 11 11 11 10 10 10 10
4 3 3 4 4 4 4 4 2 2 2 1 2 5 8 10 9 9 9 9 8 8
3 3 3 2 1 1 1 1 1 1 1 2 2 5 7 9 8 9 8 7 6 5
1 1 0 -1 -1 -0 0 0 1 3 3 3 2 5 7 7 7 8 7 7 7 6
1 0 -1 -2 -1 -1 0 1 2 3 3 4 4 5 5 7 9 9 9 8 6 6
-1 -1 -1 -0 -0 -0 0 1 2 1 2 2 3 3 7 6 8 8 8 9 10 9
Wind_Speed
6 4 3 3 2 0 3 3 4 4 5 5 5 5 5 4 5 5 5 5 4 5
8 7 6 5 3 2 2 4 5 5 5 4 4 5 6 4 5 5 5 5 5 6
8 7 6 5 5 3 2 4 6 6 6 6 5 6 7 7 6 7 7 7 8 8
8 7 7 7 5 3 3 4 6 6 7 8 7 7 8 8 9 9 9 9 10 11
8 8 8 7 5 3 5 4 6 6 7 8 8 8 9 10 11 11 12 12 13 14
7 7 7 6 5 4 4 5 6 7 8 9 9 9 10 11 13 13 13 14 15 16
8 8 7 5 4 3 4 6 7 7 9 9 10 11 12 12 13 15 15 16 17 18
6 5 4 4 3 4 5 6 7 8 9 9 10 11 11 14 17 18 20 19 20 20
3 3 4 4 4 5 6 7 7 8 10 11 11 15 19 20 19 21 22 22 22 22
2 3 3 3 4 6 7 7 9 11 10 12 13 17 20 22 20 20 21 23 23 24
4 4 4 5 6 7 9 10 10 11 12 13 14 18 20 22 20 20 21 22 24 25
4 6 6 9 9 9 9 10 11 11 12 13 15 18 20 21 19 19 21 21 23 24
7 7 9 11 10 10 8 11 11 13 13 16 18 20 22 20 17 19 19 20 23 27
9 10 11 11 10 10 11 11 12 14 15 16 17 18 21 22 19 19 20 21 21 21
Wind_Direction
170 177 186 198 205 265 323 337 350 5 356 5 5 1 359 353 353 354 357 353 348 331
192 192 197 199 222 230 278 318 330 333 328 336 341 342 340 341 337 335 330 328 326 320
205 204 203 205 219 225 291 295 305 314 316 321 335 334 334 328 326 320 318 313 317 310
204 205 208 226 225 220 251 272 285 301 312 316 322 323 319 312 308 311 307 306 305 304
207 206 218 225 230 229 247 259 281 296 298 296 303 307 307 307 305 302 301 301 302 300
221 224 236 235 235 249 273 284 285 285 282 287 290 293 292 290 292 291 291 293 292 293
228 232 235 241 250 271 288 285 285 279 279 280 285 287 288 288 290 290 287 288 286 285
221 223 235 250 262 277 278 281 281 282 282 283 282 281 286 288 288 287 287 285 284 282
264 248 232 239 261 271 273 269 270 270 277 283 284 285 292 291 289 287 285 285 285 284
340 305 301 305 295 285 280 279 275 277 279 283 285 288 292 292 290 289 286 284 283 282
353 326 315 301 290 289 285 282 283 283 283 283 285 292 297 296 293 290 286 283 282 282
314 303 302 294 292 288 282 281 280 280 284 283 288 295 298 303 296 288 285 283 280 278
297 292 292 288 287 287 277 283 285 286 284 282 285 288 293 295 285 285 285 282 280 279
297 292 284 283 281 279 279 279 278 280 281 276 273 275 284 291 289 285 283 279 279 280